Location: Nied?wied?
(53.3665°N, 14.8184°E)
Time: 21:11:17
(UTC+00:00)

USA 234 - Pass Details

Date: 03 March 2021
Orbit: 1102 x 1105 km, 123.0° (Epoch: 12 April)

Event Time Altitude Azimuth Distance (km) Brightness Sun altitude
Exits shadow 21:27:18 35° 274° (W) 1,718 4.4 -38.5°
Drops below altitude 10° 21:30:48 10° 266° (W) 2,963 5.8 -38.7°
Sets 21:33:17 0° 265° (W) 3,921 6.5 -38.9°
